CPA170 YPPH-VHHH

Flight info

Callsign CPA170
Flight time N/A
Altitude 35000
Route AVNEX Y15 ESDEG/N0486F340 Q587 OPOSA/N0491F360 Q587 METUM R592 BLI M522 ELANG/N0487F370 M522 VINIK M754 AKOTA/N0483F380 A583 SABNO V542 BETTY
Aircraft B77W/H-SDE1E2E3FGHIJ2J3J4J5M1RWXY/LB1D1

Departure

Time 2026-05-07 23:38
Airport Perth International Airport (YPPH)

Arrival

Time N/A
Airport Hong Kong International Airport (VHHH)
Time Latitude Longitude Altitude Speed Heading
2026-05-07 22:39 -31.94048 115.97122 71 ft 0 kts 194°
2026-05-07 23:22 -31.94031 115.97127 61 ft 4 kts 194°
2026-05-07 23:23 -31.94004 115.97134 63 ft 4 kts 194°
2026-05-07 23:23 -31.93980 115.97142 63 ft 4 kts 213°
2026-05-07 23:23 -31.93965 115.97164 60 ft 4 kts 261°
2026-05-07 23:23 -31.93966 115.97193 60 ft 4 kts 281°
2026-05-07 23:24 -31.93966 115.97222 60 ft 4 kts 245°
2026-05-07 23:24 -31.93952 115.97249 60 ft 4 kts 236°
2026-05-07 23:24 -31.93945 115.97263 60 ft 0 kts 244°
2026-05-07 23:26 -31.93945 115.97262 60 ft 1 kts 244°
2026-05-07 23:26 -31.93953 115.97241 60 ft 6 kts 247°
2026-05-07 23:27 -31.93936 115.97039 70 ft 14 kts 284°
2026-05-07 23:27 -31.93918 115.96951 66 ft 0 kts 283°
2026-05-07 23:27 -31.93918 115.96950 66 ft 1 kts 283°
2026-05-07 23:28 -31.93914 115.96925 61 ft 6 kts 271°
2026-05-07 23:28 -31.93974 115.96871 67 ft 16 kts 190°
2026-05-07 23:28 -31.94079 115.96843 66 ft 16 kts 194°
2026-05-07 23:28 -31.94185 115.96813 63 ft 16 kts 193°
2026-05-07 23:29 -31.94292 115.96782 62 ft 16 kts 194°
2026-05-07 23:29 -31.94398 115.96751 62 ft 16 kts 194°
2026-05-07 23:29 -31.94508 115.96718 64 ft 19 kts 194°
2026-05-07 23:29 -31.94673 115.96670 62 ft 26 kts 194°
2026-05-07 23:30 -31.94790 115.96635 66 ft 26 kts 194°
2026-05-07 23:30 -31.95020 115.96570 64 ft 26 kts 193°
2026-05-07 23:30 -31.95135 115.96537 62 ft 26 kts 193°
2026-05-07 23:30 -31.95309 115.96488 65 ft 26 kts 194°
2026-05-07 23:31 -31.95482 115.96436 68 ft 25 kts 194°
2026-05-07 23:31 -31.95596 115.96402 71 ft 14 kts 195°
2026-05-07 23:31 -31.95637 115.96390 84 ft 0 kts 195°
2026-05-07 23:32 -31.95638 115.96389 83 ft 2 kts 195°
2026-05-07 23:33 -31.95709 115.96367 85 ft 14 kts 195°
2026-05-07 23:33 -31.95805 115.96339 84 ft 14 kts 193°
2026-05-07 23:33 -31.95841 115.96329 70 ft 2 kts 193°
2026-05-07 23:33 -31.95866 115.96322 73 ft 5 kts 194°
2026-05-07 23:34 -31.95913 115.96279 69 ft 12 kts 243°
2026-05-07 23:34 -31.95912 115.96196 83 ft 1 kts 281°
2026-05-07 23:35 -31.95911 115.96189 83 ft 2 kts 281°
2026-05-07 23:35 -31.95900 115.96134 86 ft 15 kts 283°
2026-05-07 23:35 -31.95875 115.96011 81 ft 10 kts 283°
2026-05-07 23:35 -31.95836 115.95981 71 ft 7 kts
2026-05-07 23:36 -31.95826 115.95984 73 ft 0 kts 10°
2026-05-07 23:36 -31.95823 115.95984 73 ft 4 kts 10°
2026-05-07 23:37 -31.95670 115.96027 68 ft 51 kts 14°
2026-05-07 23:37 -31.95083 115.96200 61 ft 122 kts 14°
2026-05-07 23:37 -31.94059 115.96498 62 ft 177 kts 12°
2026-05-07 23:37 -31.92819 115.96820 536 ft 180 kts 15°
2026-05-07 23:38 -31.91609 115.97190 1247 ft 180 kts 18°
2026-05-07 23:38 -31.90402 115.97573 1910 ft 182 kts 19°
2026-05-07 23:38 -31.89078 115.97791 2165 ft 210 kts 359°
2026-05-07 23:38 -31.87631 115.97201 2709 ft 229 kts 336°
2026-05-07 23:39 -31.86481 115.95809 3383 ft 251 kts 307°
2026-05-07 23:39 -31.85834 115.93835 3998 ft 267 kts 289°
2026-05-07 23:39 -31.85501 115.91647 4731 ft 274 kts 283°
2026-05-07 23:39 -31.85243 115.89419 5540 ft 276 kts 281°
2026-05-07 23:40 -31.84989 115.87164 6254 ft 281 kts 281°
2026-05-07 23:40 -31.84726 115.84857 6936 ft 287 kts 280°
2026-05-07 23:40 -31.84447 115.82512 7602 ft 292 kts 280°
2026-05-07 23:40 -31.84153 115.80136 8311 ft 295 kts 280°
2026-05-07 23:41 -31.83851 115.77739 9011 ft 298 kts 280°
2026-05-07 23:41 -31.83511 115.75354 9638 ft 299 kts 287°
2026-05-07 23:41 -31.82537 115.73206 10144 ft 301 kts 317°
2026-05-07 23:41 -31.80796 115.71809 10440 ft 312 kts 343°
2026-05-07 23:42 -31.78659 115.71195 10587 ft 326 kts 352°
2026-05-07 23:42 -31.76352 115.70671 10758 ft 349 kts 352°
2026-05-07 23:42 -31.73899 115.70119 11073 ft 366 kts 352°
2026-05-07 23:42 -31.71369 115.69546 11683 ft 375 kts 352°
2026-05-07 23:43 -31.68789 115.68957 12470 ft 380 kts 352°
2026-05-07 23:43 -31.66182 115.68357 13432 ft 383 kts 352°
2026-05-07 23:43 -31.63558 115.67749 14371 ft 386 kts 352°
2026-05-07 23:43 -31.60902 115.67133 15162 ft 391 kts 352°
2026-05-07 23:44 -31.58211 115.66508 15929 ft 397 kts 352°
2026-05-07 23:44 -31.55486 115.65875 16718 ft 402 kts 352°
2026-05-07 23:44 -31.52761 115.65242 17480 ft 407 kts 352°
2026-05-07 23:44 -31.49970 115.64593 18262 ft 412 kts 351°
2026-05-07 23:45 -31.47144 115.63937 18948 ft 417 kts 351°
2026-05-07 23:45 -31.44270 115.63269 19614 ft 422 kts 351°
2026-05-07 23:45 -31.41376 115.62597 20320 ft 425 kts 351°
2026-05-07 23:45 -31.38466 115.61921 21035 ft 428 kts 351°
2026-05-07 23:46 -31.35533 115.61241 21701 ft 432 kts 351°
2026-05-07 23:46 -31.32576 115.60557 22361 ft 436 kts 351°
2026-05-07 23:46 -31.29585 115.59915 22964 ft 437 kts 355°
2026-05-07 23:46 -31.26533 115.59913 23490 ft 439 kts
2026-05-07 23:47 -31.23558 115.60714 24059 ft 441 kts 20°
2026-05-07 23:47 -31.20764 115.62194 24538 ft 441 kts 29°
2026-05-07 23:47 -31.18046 115.63885 24989 ft 446 kts 29°
2026-05-07 23:47 -31.15312 115.65576 25458 ft 451 kts 29°
2026-05-07 23:48 -31.12528 115.67281 25939 ft 454 kts 28°
2026-05-07 23:48 -31.09712 115.68987 26432 ft 458 kts 28°
2026-05-07 23:48 -31.06869 115.70696 26909 ft 461 kts 28°
2026-05-07 23:48 -31.04006 115.72409 27344 ft 465 kts 28°
2026-05-07 23:49 -31.01113 115.74136 27802 ft 468 kts 28°
2026-05-07 23:49 -30.98200 115.75874 28234 ft 472 kts 28°
2026-05-07 23:49 -30.95251 115.77632 28623 ft 477 kts 28°